Time,TemperatureF,DewpointF,PressureIn,WindDirection,WindDirectionDegrees,WindSpeedMPH,WindSpeedGustMPH,Humidity,HourlyPrecipIn,Conditions,Clouds,dailyrainin,SoftwareType,DateUTC
2013-04-13 00:03:00,58.0,38.0,29.81,NW,315,0.0,0.0,48,0.00,,,1.36,,2013-04-13 04:03:00,
2013-04-13 00:12:00,58.0,38.0,29.81,NW,315,0.0,0.0,48,0.00,,,1.36,,2013-04-13 04:12:00,
2013-04-13 00:23:00,57.0,39.0,29.81,NW,315,0.0,0.0,50,0.00,,,1.31,,2013-04-13 04:23:00,
2013-04-13 00:33:00,56.0,39.0,29.81,NW,315,0.0,0.0,52,0.00,,,1.31,,2013-04-13 04:33:00,
2013-04-13 00:42:00,56.0,39.0,29.81,NW,315,0.0,0.0,52,0.00,,,1.31,,2013-04-13 04:42:00,
2013-04-13 00:53:00,55.0,41.0,29.82,NW,315,0.0,0.0,58,0.00,,,1.31,,2013-04-13 04:53:00,
2013-04-13 01:02:00,54.0,41.0,29.83,NW,315,0.0,0.0,61,0.00,,,1.31,,2013-04-13 05:02:00,
2013-04-13 01:12:00,54.0,41.0,29.83,NW,315,0.0,0.0,61,0.00,,,1.31,,2013-04-13 05:12:00,
2013-04-13 01:22:00,53.0,42.0,29.84,NW,315,0.0,0.0,66,0.00,,,1.13,,2013-04-13 05:22:00,
2013-04-13 01:32:00,52.0,41.0,29.84,NW,315,0.0,0.0,67,0.00,,,1.13,,2013-04-13 05:32:00,
2013-04-13 01:43:00,52.0,41.0,29.84,NW,315,0.0,0.0,67,0.00,,,1.13,,2013-04-13 05:43:00,
2013-04-13 01:53:00,51.0,42.0,29.85,NW,315,0.0,0.0,70,0.00,,,1.13,,2013-04-13 05:53:00,
2013-04-13 02:02:00,50.0,42.0,29.85,NW,315,0.0,0.0,74,0.00,,,1.13,,2013-04-13 06:02:00,
2013-04-13 02:12:00,50.0,42.0,29.85,NW,315,0.0,0.0,74,0.00,,,1.13,,2013-04-13 06:12:00,
2013-04-13 02:24:00,51.0,43.0,29.85,NW,315,0.0,0.0,73,0.00,,,0.13,,2013-04-13 06:24:00,
2013-04-13 02:35:00,50.0,43.0,29.85,NW,315,0.0,0.0,76,0.00,,,0.13,,2013-04-13 06:35:00,
2013-04-13 02:49:00,50.0,43.0,29.85,NW,315,0.0,0.0,76,0.00,,,0.13,,2013-04-13 06:49:00,
2013-04-13 02:55:00,49.0,43.0,29.85,NW,315,0.0,0.0,79,0.00,,,0.13,,2013-04-13 06:55:00,
2013-04-13 03:05:00,49.0,44.0,29.85,NW,315,0.0,0.0,82,0.00,,,0.13,,2013-04-13 07:05:00,
2013-04-13 03:15:00,49.0,44.0,29.85,NW,315,0.0,0.0,82,0.00,,,0.13,,2013-04-13 07:15:00,
2013-04-13 03:24:00,48.0,43.0,29.85,NW,315,0.0,0.0,83,0.00,,,0.00,,2013-04-13 07:24:00,
2013-04-13 03:35:00,48.0,43.0,29.85,NW,315,0.0,0.0,84,0.00,,,0.00,,2013-04-13 07:35:00,
2013-04-13 03:45:00,48.0,43.0,29.85,NW,315,0.0,0.0,84,0.00,,,0.00,,2013-04-13 07:45:00,
2013-04-13 03:57:00,47.0,43.0,29.85,NW,315,0.0,0.0,86,0.00,,,0.00,,2013-04-13 07:57:00,
2013-04-13 04:06:00,47.0,43.0,29.85,NW,315,0.0,0.0,86,0.00,,,0.00,,2013-04-13 08:06:00,
2013-04-13 04:16:00,47.0,43.0,29.85,NW,315,0.0,0.0,86,0.00,,,0.00,,2013-04-13 08:16:00,
2013-04-13 04:26:00,47.0,44.0,29.86,NW,315,0.0,0.0,88,0.00,,,0.00,,2013-04-13 08:26:00,
2013-04-13 04:35:00,47.0,44.0,29.86,NW,315,0.0,0.0,88,0.00,,,0.00,,2013-04-13 08:35:00,
2013-04-13 04:46:00,47.0,44.0,29.86,NW,315,0.0,0.0,88,0.00,,,0.00,,2013-04-13 08:46:00,
2013-04-13 04:55:00,46.0,43.0,29.86,NW,315,0.0,0.0,89,0.00,,,0.00,,2013-04-13 08:55:00,
2013-04-13 05:05:00,46.0,43.0,29.86,NW,315,0.0,0.0,90,0.00,,,0.00,,2013-04-13 09:05:00,
2013-04-13 05:15:00,46.0,43.0,29.86,NW,315,0.0,0.0,90,0.00,,,0.00,,2013-04-13 09:15:00,
2013-04-13 05:37:00,46.0,43.0,29.88,NW,315,0.0,0.0,90,0.00,,,0.00,,2013-04-13 09:37:00,
2013-04-13 05:51:00,46.0,43.0,29.88,NW,315,0.0,0.0,90,0.00,,,0.00,,2013-04-13 09:51:00,
2013-04-13 06:05:00,45.0,43.0,29.88,NW,315,0.0,0.0,92,0.00,,,0.00,,2013-04-13 10:05:00,
2013-04-13 06:15:00,45.0,43.0,29.89,NW,315,0.0,0.0,91,0.00,,,0.00,,2013-04-13 10:15:00,
2013-04-13 06:25:00,45.0,43.0,29.89,NW,315,0.0,0.0,91,0.00,,,0.00,,2013-04-13 10:25:00,
2013-04-13 06:37:00,45.0,43.0,29.89,NW,315,0.0,0.0,91,0.00,,,0.00,,2013-04-13 10:37:00,
2013-04-13 06:47:00,45.0,43.0,29.89,NW,315,0.0,0.0,91,0.00,,,0.00,,2013-04-13 10:47:00,
2013-04-13 06:55:00,45.0,43.0,29.90,NW,315,0.0,0.0,91,0.00,,,0.00,,2013-04-13 10:55:00,
2013-04-13 07:14:00,45.0,42.0,29.90,NW,315,0.0,0.0,90,0.00,,,0.00,,2013-04-13 11:14:00,
2013-04-13 07:24:00,44.0,42.0,29.91,NW,315,0.0,0.0,91,0.00,,,0.00,,2013-04-13 11:24:00,
2013-04-13 07:34:00,45.0,42.0,29.92,NW,315,0.0,0.0,90,0.00,,,0.00,,2013-04-13 11:34:00,
2013-04-13 07:45:00,45.0,42.0,29.92,NW,315,0.0,0.0,90,0.00,,,0.00,,2013-04-13 11:45:00,
2013-04-13 07:54:00,44.0,42.0,29.93,NW,315,0.0,0.0,91,0.00,,,0.00,,2013-04-13 11:54:00,
2013-04-13 08:08:00,46.0,43.0,29.93,NW,315,0.0,0.0,90,0.00,,,0.00,,2013-04-13 12:08:00,
2013-04-13 08:15:00,46.0,43.0,29.93,NW,315,0.0,0.0,90,0.00,,,0.00,,2013-04-13 12:15:00,
2013-04-13 08:25:00,48.0,44.0,29.94,NW,315,0.0,0.0,87,0.00,,,0.00,,2013-04-13 12:25:00,
2013-04-13 08:36:00,51.0,45.0,29.95,NW,315,0.0,0.0,81,0.00,,,0.00,,2013-04-13 12:36:00,
2013-04-13 08:47:00,51.0,45.0,29.95,NW,315,0.0,0.0,81,0.00,,,0.00,,2013-04-13 12:47:00,
2013-04-13 08:56:00,54.0,47.0,29.95,NW,315,1.0,2.0,76,0.00,,,0.00,,2013-04-13 12:56:00,
2013-04-13 09:07:00,55.0,43.0,29.96,SSW,211,0.0,4.0,65,0.00,,,0.00,,2013-04-13 13:07:00,
2013-04-13 09:15:00,55.0,43.0,29.96,SSW,211,0.0,4.0,65,0.00,,,0.00,,2013-04-13 13:15:00,
2013-04-13 09:30:00,57.0,47.0,29.96,West,272,1.0,3.0,68,0.00,,,0.00,,2013-04-13 13:30:00,
2013-04-13 09:48:00,57.0,45.0,29.97,SSW,195,2.0,5.0,63,0.00,,,0.00,,2013-04-13 13:48:00,
2013-04-13 09:57:00,57.0,45.0,29.97,SSW,195,2.0,5.0,63,0.00,,,0.00,,2013-04-13 13:57:00,
2013-04-13 10:05:00,59.0,41.0,29.97,SSW,194,1.0,4.0,52,0.00,,,0.00,,2013-04-13 14:05:00,
2013-04-13 10:24:00,61.0,42.0,29.98,NE,41,1.0,4.0,50,0.00,,,0.00,,2013-04-13 14:24:00,
2013-04-13 10:39:00,61.0,42.0,29.98,NE,41,1.0,4.0,50,0.00,,,0.00,,2013-04-13 14:39:00,
2013-04-13 11:00:00,63.0,41.0,29.98,South,187,2.0,5.0,45,0.00,,,0.00,,2013-04-13 15:00:00,
2013-04-13 11:05:00,63.0,41.0,29.99,WSW,250,4.0,7.0,45,0.00,,,0.00,,2013-04-13 15:05:00,
2013-04-13 11:15:00,63.0,41.0,29.99,WSW,250,4.0,7.0,45,0.00,,,0.00,,2013-04-13 15:15:00,
2013-04-13 11:29:00,64.0,43.0,29.99,West,267,2.0,6.0,47,0.00,,,0.00,,2013-04-13 15:29:00,
2013-04-13 11:37:00,66.0,42.0,29.98,SSE,165,2.0,5.0,42,0.00,,,0.00,,2013-04-13 15:37:00,
2013-04-13 11:44:00,66.0,42.0,29.98,SSE,165,2.0,5.0,42,0.00,,,0.00,,2013-04-13 15:44:00,
2013-04-13 11:58:00,65.0,44.0,29.99,SSW,194,1.0,6.0,46,0.00,,,0.00,,2013-04-13 15:58:00,
2013-04-13 12:07:00,66.0,43.0,29.99,SSW,207,4.0,7.0,44,0.00,,,0.00,,2013-04-13 16:07:00,
2013-04-13 12:15:00,66.0,43.0,29.99,SSW,207,4.0,7.0,44,0.00,,,0.00,,2013-04-13 16:15:00,
2013-04-13 12:36:00,68.0,43.0,29.98,West,273,3.0,8.0,40,0.00,,,0.00,,2013-04-13 16:36:00,
2013-04-13 12:46:00,68.0,43.0,29.98,West,273,3.0,8.0,40,0.00,,,0.00,,2013-04-13 16:46:00,
2013-04-13 12:58:00,68.0,41.0,29.98,SE,127,1.0,5.0,37,0.00,,,0.00,,2013-04-13 16:58:00,
2013-04-13 13:08:00,69.0,41.0,29.98,SSW,208,2.0,6.0,36,0.00,,,0.00,,2013-04-13 17:08:00,
2013-04-13 13:22:00,69.0,41.0,29.98,SSW,208,2.0,6.0,36,0.00,,,0.00,,2013-04-13 17:22:00,
2013-04-13 13:38:00,71.0,40.0,29.97,WSW,254,3.0,7.0,33,0.00,,,0.00,,2013-04-13 17:38:00,
2013-04-13 13:44:00,71.0,40.0,29.97,WSW,254,3.0,7.0,33,0.00,,,0.00,,2013-04-13 17:44:00,
2013-04-13 14:04:00,72.0,40.0,29.96,SE,146,2.0,7.0,31,0.00,,,0.00,,2013-04-13 18:04:00,
2013-04-13 14:15:00,73.0,44.0,29.96,SSW,207,3.0,6.0,36,0.00,,,0.00,,2013-04-13 18:15:00,
2013-04-13 14:25:00,72.0,39.0,29.95,NNE,31,2.0,7.0,30,0.00,,,0.00,,2013-04-13 18:25:00,
2013-04-13 14:33:00,74.0,42.0,29.94,SW,236,3.0,5.0,32,0.00,,,0.00,,2013-04-13 18:33:00,
2013-04-13 14:42:00,74.0,42.0,29.94,SW,236,3.0,5.0,32,0.00,,,0.00,,2013-04-13 18:42:00,
2013-04-13 14:53:00,74.0,41.0,29.93,NNE,26,4.0,7.0,31,0.00,,,0.00,,2013-04-13 18:53:00,
2013-04-13 15:03:00,75.0,41.0,29.93,WSW,253,1.0,7.0,30,0.00,,,0.00,,2013-04-13 19:03:00,
2013-04-13 15:12:00,75.0,41.0,29.93,WSW,253,1.0,7.0,30,0.00,,,0.00,,2013-04-13 19:12:00,
2013-04-13 15:22:00,75.0,40.0,29.93,SSW,211,2.0,7.0,28,0.00,,,0.00,,2013-04-13 19:22:00,
2013-04-13 15:32:00,75.0,40.0,29.92,ESE,111,3.0,9.0,28,0.00,,,0.00,,2013-04-13 19:32:00,
2013-04-13 15:42:00,75.0,40.0,29.92,ESE,111,3.0,9.0,28,0.00,,,0.00,,2013-04-13 19:42:00,
2013-04-13 15:53:00,75.0,40.0,29.91,NE,53,2.0,8.0,28,0.00,,,0.00,,2013-04-13 19:53:00,
2013-04-13 16:02:00,75.0,40.0,29.91,SSE,167,4.0,8.0,28,0.00,,,0.00,,2013-04-13 20:02:00,
2013-04-13 16:12:00,75.0,40.0,29.91,SSE,167,4.0,8.0,28,0.00,,,0.00,,2013-04-13 20:12:00,
2013-04-13 16:22:00,76.0,40.0,29.91,SSE,163,2.0,5.0,27,0.00,,,0.00,,2013-04-13 20:22:00,
2013-04-13 16:32:00,76.0,39.0,29.90,WSW,241,3.0,7.0,26,0.00,,,0.00,,2013-04-13 20:32:00,
2013-04-13 16:42:00,76.0,39.0,29.90,WSW,241,3.0,7.0,26,0.00,,,0.00,,2013-04-13 20:42:00,
2013-04-13 16:52:00,77.0,41.0,29.90,SE,125,1.0,6.0,28,0.00,,,0.00,,2013-04-13 20:52:00,
2013-04-13 17:02:00,76.0,37.0,29.90,NNE,22,2.0,5.0,24,0.00,,,0.00,,2013-04-13 21:02:00,
2013-04-13 17:12:00,76.0,37.0,29.90,NNE,22,2.0,5.0,24,0.00,,,0.00,,2013-04-13 21:12:00,
2013-04-13 17:22:00,77.0,42.0,29.89,SW,224,2.0,7.0,29,0.00,,,0.00,,2013-04-13 21:22:00,
2013-04-13 17:33:00,77.0,38.0,29.89,South,183,1.0,7.0,25,0.00,,,0.00,,2013-04-13 21:33:00,
2013-04-13 17:43:00,77.0,38.0,29.89,South,183,1.0,7.0,25,0.00,,,0.00,,2013-04-13 21:43:00,
2013-04-13 17:53:00,76.0,38.0,29.90,SSE,165,4.0,10.0,25,0.00,,,0.00,,2013-04-13 21:53:00,
2013-04-13 18:03:00,76.0,39.0,29.90,SE,132,3.0,9.0,26,0.00,,,0.00,,2013-04-13 22:03:00,
2013-04-13 18:13:00,76.0,39.0,29.90,SE,132,3.0,9.0,26,0.00,,,0.00,,2013-04-13 22:13:00,
2013-04-13 18:22:00,75.0,41.0,29.90,South,182,2.0,6.0,29,0.00,,,0.00,,2013-04-13 22:22:00,
2013-04-13 18:33:00,74.0,40.0,29.90,SSE,150,3.0,8.0,29,0.00,,,0.00,,2013-04-13 22:33:00,
2013-04-13 18:42:00,74.0,40.0,29.90,SSE,150,3.0,8.0,29,0.00,,,0.00,,2013-04-13 22:42:00,
2013-04-13 18:53:00,74.0,39.0,29.90,SSE,153,2.0,7.0,28,0.00,,,0.00,,2013-04-13 22:53:00,
2013-04-13 19:02:00,74.0,39.0,29.90,SSE,157,2.0,5.0,28,0.00,,,0.00,,2013-04-13 23:02:00,
2013-04-13 19:12:00,74.0,39.0,29.90,SSE,157,2.0,5.0,28,0.00,,,0.00,,2013-04-13 23:12:00,
2013-04-13 19:22:00,74.0,39.0,29.91,South,180,3.0,8.0,28,0.00,,,0.00,,2013-04-13 23:22:00,
2013-04-13 19:33:00,74.0,40.0,29.91,East,83,3.0,5.0,29,0.00,,,0.00,,2013-04-13 23:33:00,
2013-04-13 19:42:00,74.0,40.0,29.91,East,83,3.0,5.0,29,0.00,,,0.00,,2013-04-13 23:42:00,
2013-04-13 19:53:00,72.0,40.0,29.92,SSE,159,1.0,4.0,31,0.00,,,0.00,,2013-04-13 23:53:00,
2013-04-13 20:03:00,71.0,40.0,29.92,SE,134,0.0,3.0,33,0.00,,,0.00,,2013-04-14 00:03:00,
2013-04-13 20:12:00,71.0,40.0,29.92,SE,134,0.0,3.0,33,0.00,,,0.00,,2013-04-14 00:12:00,
2013-04-13 20:22:00,68.0,43.0,29.93,SE,134,0.0,1.0,40,0.00,,,0.00,,2013-04-14 00:22:00,
2013-04-13 20:32:00,67.0,42.0,29.93,SE,132,0.0,4.0,40,0.00,,,0.00,,2013-04-14 00:32:00,
2013-04-13 20:42:00,67.0,42.0,29.93,SE,132,0.0,4.0,40,0.00,,,0.00,,2013-04-14 00:42:00,
2013-04-13 20:52:00,67.0,42.0,29.93,SE,132,0.0,4.0,40,0.00,,,0.00,,2013-04-14 00:52:00,
2013-04-13 21:02:00,66.0,43.0,29.93,SE,132,0.0,0.0,44,0.00,,,0.00,,2013-04-14 01:02:00,
2013-04-13 21:12:00,66.0,43.0,29.93,SE,132,0.0,0.0,44,0.00,,,0.00,,2013-04-14 01:12:00,
2013-04-13 21:23:00,64.0,45.0,29.95,SE,129,0.0,3.0,50,0.00,,,0.00,,2013-04-14 01:23:00,
2013-04-13 21:32:00,66.0,45.0,29.96,ESE,121,0.0,3.0,46,0.00,,,0.00,,2013-04-14 01:32:00,
2013-04-13 21:43:00,66.0,45.0,29.96,ESE,121,0.0,3.0,46,0.00,,,0.00,,2013-04-14 01:43:00,
2013-04-13 21:53:00,65.0,44.0,29.97,NE,38,0.0,3.0,47,0.00,,,0.00,,2013-04-14 01:53:00,
2013-04-13 22:02:00,65.0,43.0,29.97,NE,38,1.0,7.0,45,0.00,,,0.00,,2013-04-14 02:02:00,
2013-04-13 22:12:00,65.0,43.0,29.97,NE,38,1.0,7.0,45,0.00,,,0.00,,2013-04-14 02:12:00,
2013-04-13 22:22:00,63.0,42.0,29.98,NE,46,1.0,3.0,46,0.00,,,0.00,,2013-04-14 02:22:00,
2013-04-13 22:32:00,65.0,39.0,29.99,NE,34,3.0,9.0,38,0.00,,,0.00,,2013-04-14 02:32:00,
2013-04-13 22:42:00,65.0,39.0,29.99,NE,34,3.0,9.0,38,0.00,,,0.00,,2013-04-14 02:42:00,
2013-04-13 22:53:00,66.0,40.0,29.99,ENE,77,1.0,8.0,38,0.00,,,0.00,,2013-04-14 02:53:00,
2013-04-13 23:03:00,65.0,38.0,29.99,NNE,21,0.0,4.0,37,0.00,,,0.00,,2013-04-14 03:03:00,
2013-04-13 23:12:00,65.0,38.0,29.99,NNE,21,0.0,4.0,37,0.00,,,0.00,,2013-04-14 03:12:00,
2013-04-13 23:22:00,62.0,39.0,29.99,ENE,76,0.0,3.0,43,0.00,,,0.00,,2013-04-14 03:22:00,
2013-04-13 23:33:00,62.0,41.0,29.99,ENE,78,1.0,3.0,46,0.00,,,0.00,,2013-04-14 03:33:00,
2013-04-13 23:42:00,62.0,41.0,29.99,ENE,78,1.0,3.0,46,0.00,,,0.00,,2013-04-14 03:42:00,
2013-04-13 23:53:00,62.0,40.0,30.00,East,101,1.0,5.0,45,0.00,,,0.00,,2013-04-14 03:53:00,